Latest Weather Observations for Bathurst Airport

IDN60801

Issued at 2:03 pm EST Saturday 30 May 2015 (issued every 30 minutes, with the page automatically refreshed every 10 minutes)

About weather observations | Map of weather stations | Latest weather observations for NSW | Other Formats
Station Details ID: 063291 Name: BATHURST AIRPORT AWS Lat: -33.41 Lon: 149.65 Height: 744.5 m
Data from the previous 72 hours. | See also: Recent months for locations in New South Wales
Date/Time
EST
Temp
°C
App
Temp
°C
Dew
Point
Rel
Hum
%
Delta-T
°C
Wind Press
QNH
hPa
Press
MSL
hPa
Rain
since 9 am
mm
Dir
 
Spd
km/h
Gust
km/h
Spd
kts
Gust
kts
30/02:00pm 12.4 10.7 7.5 72 2.5 W 6 11 3 6 1020.5 1020.3 0.0
30/01:30pm 12.5 10.7 8.0 74 2.3 NW 7 15 4 8 1020.5 1020.3 0.0
30/01:00pm 12.7 11.0 8.4 75 2.2 W 7 13 4 7 1021.1 1021.0 0.0
30/12:30pm 11.1 10.2 9.2 88 1.0 WSW 4 9 2 5 1021.6 1021.5 0.0
30/12:11pm 10.4 10.0 9.9 97 0.3 WNW 2 7 1 4 1021.6 1021.5 0.0
30/12:00pm 10.2 9.5 10.0 99 0.1 W 4 9 2 5 1022.2 1022.1 0.0
30/11:30am 9.1 7.8 9.1 100 0.0 NNW 6 9 3 5 1022.7 1022.6 0.0
30/11:10am 8.2 7.4 8.2 100 0.0 NNW 2 7 1 4 1023.1 1023.1 0.0
30/11:00am 7.9 6.3 7.9 100 0.0 NNW 6 9 3 5 1023.4 1023.3 0.0
30/10:37am 7.3 5.9 7.3 100 0.0 N 4 7 2 4 1023.8 1023.7 0.0
30/10:34am 7.2 6.2 7.2 100 0.0 N 2 7 1 4 1023.7 1023.6 0.0
30/10:30am 7.3 6.3 7.3 100 0.0 NNW 2 7 1 4 1023.8 1023.7 0.0
30/10:00am 6.8 5.3 6.8 100 0.0 WNW 4 9 2 5 1024.1 1024.0 0.0
30/09:30am 6.3 4.3 6.3 100 0.0 N 6 7 3 4 1023.9 1023.8 0.0
30/09:00am 6.0 5.1 6.0 100 0.0 CALM 0 0 0 0 1024.2 1024.1 2.2
30/08:30am 5.9 5.0 5.9 100 0.0 CALM 0 6 0 3 1024.0 1023.9 2.2
30/08:00am 5.7 4.7 5.7 100 0.0 CALM 0 0 0 0 1024.1 1024.0 2.2
30/07:30am 5.5 4.5 5.5 100 0.0 CALM 0 0 0 0 1024.1 1024.0 2.2
30/07:00am 5.3 4.2 5.3 100 0.0 CALM 0 0 0 0 1023.8 1023.7 2.2
30/06:30am 4.8 3.6 4.8 100 0.0 CALM 0 0 0 0 1023.8 1023.7 2.2
30/06:00am 5.0 3.9 5.0 100 0.0 CALM 0 6 0 3 1023.5 1023.4 2.2
30/05:30am 4.5 3.3 4.5 100 0.0 CALM 0 0 0 0 1023.4 1023.3 2.2
30/05:00am 4.6 2.3 4.6 100 0.0 SW 6 9 3 5 1023.3 1023.2 2.2
30/04:32am 4.4 2.0 4.4 100 0.0 W 6 9 3 5 1023.3 1023.2 2.2
30/04:30am 4.4 1.8 4.4 100 0.0 W 7 9 4 5 1023.3 1023.2 2.2
30/04:13am 4.1 1.5 4.0 99 0.0 W 7 7 4 4 1023.4 1023.3 2.2
30/04:02am 4.6 3.4 4.6 100 0.0 CALM 0 6 0 3 1023.1 1023.1 2.2
30/04:00am 4.5 3.3 4.5 100 0.0 CALM 0 0 0 0 1023.1 1023.1 2.2
30/03:30am 5.3 3.5 5.3 100 0.0 SSW 4 6 2 3 1023.5 1023.4 2.2
30/03:07am 5.3 2.9 5.3 100 0.0 SSW 7 11 4 6 1023.7 1023.6 2.2
30/03:00am 5.5 3.2 5.5 100 0.0 SE 7 9 4 5 1023.8 1023.7 2.2
30/02:30am 6.2 3.2 6.2 100 0.0 SE 11 13 6 7 1024.0 1023.9 2.2
30/02:00am 5.8 3.1 5.8 100 0.0 S 9 11 5 6 1024.1 1024.0 2.2
30/01:57am 5.6 3.3 5.6 100 0.0 S 7 9 4 5 1024.1 1024.0 2.2
30/01:30am 5.6 4.6 5.6 100 0.0 CALM 0 0 0 0 1024.2 1024.1 2.2
30/01:23am 5.2 4.1 5.2 100 0.0 CALM 0 0 0 0 1024.2 1024.1 2.2
30/01:19am 5.9 5.0 5.9 100 0.0 CALM 0 0 0 0 1024.3 1024.3 2.2
30/01:00am 5.6 3.3 5.6 100 0.0 SW 7 9 4 5 1024.3 1024.3 2.2
30/12:41am 6.4 4.4 6.4 100 0.0 ENE 6 7 3 4 1024.3 1024.3 2.2
30/12:30am 6.2 4.0 6.1 99 0.0 ENE 7 9 4 5 1024.3 1024.3 2.2
30/12:24am 6.6 4.7 6.5 99 0.0 E 6 9 3 5 1024.3 1024.3 2.2
30/12:13am 7.6 7.0 7.6 100 0.0 CALM 0 0 0 0 1024.4 1024.4 2.2
30/12:00am 7.8 7.3 7.8 100 0.0 CALM 0 0 0 0 1024.4 1024.4 2.2
 
Date/Time
EST
Temp
°C
App
Temp
°C
Dew
Point
Rel
Hum
%
Delta-T
°C
Wind Press
QNH
hPa
Press
MSL
hPa
Rain
since 9 am
mm
Dir
 
Spd
km/h
Gust
km/h
Spd
kts
Gust
kts
29/11:30pm 7.4 6.8 7.4 100 0.0 CALM 0 0 0 0 1024.9 1024.8 2.2
29/11:22pm 7.2 6.6 7.2 100 0.0 CALM 0 0 0 0 1024.8 1024.7 2.2
29/11:00pm 7.4 6.8 7.3 99 0.0 CALM 0 0 0 0 1024.4 1024.4 2.2
29/10:30pm 7.7 7.1 7.6 99 0.0 CALM 0 0 0 0 1024.5 1024.5 2.2
29/10:00pm 7.9 7.4 7.8 99 0.0 CALM 0 0 0 0 1024.5 1024.5 2.2
29/09:30pm 8.1 7.6 8.0 99 0.0 CALM 0 0 0 0 1024.4 1024.4 2.2
29/09:00pm 8.8 8.5 8.7 99 0.1 CALM 0 0 0 0 1024.5 1024.5 2.2
29/08:30pm 8.5 7.0 8.4 99 0.1 NE 6 7 3 4 1024.3 1024.3 2.2
29/08:00pm 8.9 8.0 7.7 92 0.6 SW 2 6 1 3 1024.4 1024.4 2.2
29/07:30pm 9.8 8.4 8.7 93 0.6 SW 6 7 3 4 1024.4 1024.4 2.2
29/07:00pm 9.2 7.0 7.8 91 0.7 SW 9 11 5 6 1024.3 1024.3 2.2
29/06:30pm 10.2 8.1 8.1 87 1.1 SSW 9 11 5 6 1023.9 1023.8 2.2
29/06:00pm 10.2 7.9 7.6 84 1.3 SW 9 11 5 6 1023.7 1023.6 2.2
29/05:30pm 10.9 8.3 7.8 81 1.6 WSW 11 15 6 8 1023.5 1023.4 2.2
29/05:00pm 12.2 9.3 8.3 77 2.0 WSW 13 17 7 9 1023.3 1023.2 2.2
29/04:30pm 12.6 10.2 8.7 77 2.0 WSW 11 15 6 8 1022.9 1022.8 2.2
29/04:00pm 13.1 10.4 9.0 76 2.1 W 13 17 7 9 1022.7 1022.6 2.2
29/03:30pm 13.4 9.3 7.8 69 2.9 WSW 19 22 10 12 1022.8 1022.7 2.2
29/03:00pm 13.3 10.9 8.6 73 2.4 SW 11 13 6 7 1022.7 1022.6 2.2
29/02:30pm 13.3 10.1 8.6 73 2.5 SW 15 19 8 10 1022.4 1022.3 2.2
29/02:00pm 13.5 10.3 8.4 71 2.6 SW 15 24 8 13 1022.2 1022.1 2.2
29/01:30pm 13.5 10.1 7.7 68 3.0 WSW 15 17 8 9 1022.1 1022.0 2.2
29/01:00pm 13.2 10.0 9.8 80 1.8 WSW 17 20 9 11 1022.5 1022.4 2.2
29/12:30pm 12.9 9.8 10.4 85 1.3 SW 17 24 9 13 1022.5 1022.4 2.2
29/12:00pm 12.8 9.6 10.0 83 1.5 WSW 17 20 9 11 1022.9 1022.8 2.2
29/11:30am 12.2 9.5 11.7 97 0.3 W 17 20 9 11 1023.3 1023.2 2.2
29/11:20am 12.1 9.8 11.9 99 0.1 WSW 15 20 8 11 1023.1 1023.1 2.2
29/11:17am 12.0 9.7 11.8 99 0.1 WSW 15 20 8 11 1023.1 1023.1 2.2
29/11:00am 11.6 9.2 11.4 99 0.1 NW 15 35 8 19 1023.4 1023.3 1.6
29/10:59am 12.6 10.9 12.6 100 0.0 NW 13 30 7 16 1023.3 1023.2 1.0
29/10:58am 12.6 11.3 12.6 100 0.0 NNW 11 17 6 9 1023.3 1023.2 0.8
29/10:30am 12.7 11.1 12.7 100 0.0 NNW 13 19 7 10 1023.1 1023.1 0.4
29/10:20am 12.6 10.9 12.6 100 0.0 NNW 13 17 7 9 1023.4 1023.3 0.4
29/10:07am 12.6 10.9 12.6 100 0.0 NW 13 17 7 9 1023.4 1023.3 0.4
29/10:04am 12.5 10.8 12.5 100 0.0 NW 13 17 7 9 1023.3 1023.2 0.4
29/10:02am 12.6 10.9 12.6 100 0.0 NW 13 17 7 9 1023.3 1023.2 0.4
29/10:00am 12.5 10.8 12.5 100 0.0 NW 13 20 7 11 1023.3 1023.2 0.4
29/09:34am 12.3 10.6 12.3 100 0.0 NW 13 17 7 9 1023.3 1023.2 0.0
29/09:30am 12.4 11.1 12.4 100 0.0 NW 11 15 6 8 1023.3 1023.2 0.0
29/09:00am 12.1 10.7 12.1 100 0.0 NNW 11 13 6 7 1023.1 1023.1 1.2
29/08:30am 11.9 10.8 11.9 100 0.0 NNW 9 13 5 7 1022.9 1022.8 1.2
29/08:05am 11.7 9.8 11.7 100 0.0 NNW 13 17 7 9 1022.8 1022.7 1.2
29/08:00am 11.6 9.3 11.6 100 0.0 NW 15 19 8 10 1022.7 1022.6 1.2
29/07:46am 11.5 9.1 11.5 100 0.0 NW 15 17 8 9 1022.6 1022.5 1.2
29/07:31am 11.5 8.7 11.5 100 0.0 NW 17 20 9 11 1022.5 1022.4 1.2
29/07:30am 11.4 9.0 11.4 100 0.0 NW 15 20 8 11 1022.5 1022.4 1.0
29/07:27am 11.5 9.1 11.5 100 0.0 NW 15 17 8 9 1022.5 1022.4 0.8
29/07:05am 11.5 8.7 11.5 100 0.0 NW 17 22 9 12 1022.4 1022.3 0.8
29/07:00am 11.5 8.7 11.5 100 0.0 NW 17 22 9 12 1022.4 1022.3 0.6
29/06:34am 11.5 9.1 11.5 100 0.0 NW 15 19 8 10 1022.3 1022.2 0.4
29/06:30am 11.5 8.7 11.5 100 0.0 NW 17 20 9 11 1022.3 1022.2 0.4
29/06:18am 11.6 8.3 11.6 100 0.0 NW 20 24 11 13 1022.2 1022.1 0.4
29/06:00am 12.1 8.9 11.8 98 0.2 NW 20 32 11 17 1021.9 1021.7 0.0
29/05:30am 12.2 8.9 11.7 97 0.3 NW 20 28 11 15 1021.4 1021.3 0.0
29/05:00am 12.2 8.4 11.3 94 0.5 NW 22 32 12 17 1021.3 1021.2 0.0
29/04:30am 11.9 7.7 11.0 94 0.5 NNW 24 37 13 20 1021.0 1020.9 0.0
29/04:18am 11.9 7.7 11.0 94 0.5 NNW 24 39 13 21 1021.1 1021.0 0.0
29/04:00am 12.0 7.4 11.1 94 0.5 NNW 26 32 14 17 1021.1 1021.0 0.0
29/03:30am 12.0 9.2 11.2 95 0.4 N 17 28 9 15 1021.3 1021.2 0.0
29/03:00am 11.3 9.2 11.3 100 0.0 N 13 17 7 9 1021.1 1021.0 0.0
29/02:30am 11.1 9.0 11.1 100 0.0 N 13 13 7 7 1021.6 1021.5 0.0
29/02:00am 11.1 9.8 11.1 100 0.0 N 9 11 5 6 1022.0 1021.9 0.0
29/01:30am 11.2 9.5 11.2 100 0.0 N 11 13 6 7 1022.0 1021.9 0.0
29/01:00am 11.3 8.8 11.1 99 0.1 N 15 19 8 10 1022.0 1021.9 0.0
29/12:35am 11.5 8.7 11.3 99 0.1 NNW 17 19 9 10 1022.2 1022.1 0.0
29/12:30am 11.5 8.7 11.3 99 0.1 NNW 17 22 9 12 1022.3 1022.2 0.0
29/12:00am 11.8 9.1 11.6 99 0.1 NNW 17 20 9 11 1022.7 1022.6 0.0
 
Date/Time
EST
Temp
°C
App
Temp
°C
Dew
Point
Rel
Hum
%
Delta-T
°C
Wind Press
QNH
hPa
Press
MSL
hPa
Rain
since 9 am
mm
Dir
 
Spd
km/h
Gust
km/h
Spd
kts
Gust
kts
28/11:30pm 11.7 8.9 11.5 99 0.1 NNW 17 22 9 12 1022.8 1022.7 0.0
28/11:28pm 11.8 9.1 11.6 99 0.1 NNW 17 22 9 12 1022.7 1022.6 0.0
28/11:00pm 11.7 8.5 11.4 98 0.2 N 19 20 10 11 1022.5 1022.4 0.0
28/10:35pm 11.8 9.3 11.2 96 0.3 N 15 17 8 9 1022.7 1022.6 0.0
28/10:30pm 11.9 9.8 11.3 96 0.3 N 13 17 7 9 1022.8 1022.7 0.0
28/10:16pm 11.9 9.8 11.3 96 0.3 N 13 19 7 10 1022.8 1022.7 0.0
28/10:00pm 11.8 9.7 11.3 97 0.3 N 13 17 7 9 1022.8 1022.7 0.0
28/09:30pm 12.0 9.9 11.2 95 0.4 N 13 17 7 9 1023.0 1022.9 0.0
28/09:00pm 11.8 8.6 11.2 96 0.3 N 19 22 10 12 1023.0 1022.9 0.0
28/08:30pm 11.9 8.7 11.4 97 0.3 N 19 22 10 12 1022.9 1022.8 0.0
28/08:00pm 11.5 9.4 11.3 99 0.1 N 13 20 7 11 1023.0 1022.9 0.0
28/07:30pm 11.5 9.4 11.3 99 0.1 N 13 17 7 9 1022.9 1022.8 0.0
28/07:00pm 11.2 9.1 11.2 100 0.0 NNW 13 17 7 9 1023.3 1023.2 0.0
28/06:30pm 11.3 8.9 11.3 100 0.0 N 15 17 8 9 1022.4 1022.3 0.0
28/06:00pm 11.3 8.4 11.1 99 0.1 N 17 17 9 9 1022.6 1022.5 0.0
28/05:30pm 11.5 8.7 11.3 99 0.1 N 17 19 9 10 1022.5 1022.4 0.0
28/05:00pm 12.3 10.0 11.8 97 0.3 NNW 15 17 8 9 1022.7 1022.6 0.0
28/04:30pm 12.9 10.6 11.8 93 0.6 NNW 15 20 8 11 1022.5 1022.4 0.0
28/04:25pm 12.9 10.7 12.0 94 0.5 N 15 17 8 9 1022.5 1022.4 0.0
28/04:00pm 13.0 11.1 11.7 92 0.7 N 13 15 7 8 1022.5 1022.4 0.0
28/03:30pm 14.1 12.1 11.6 85 1.4 N 13 17 7 9 1022.6 1022.5 0.0
28/03:00pm 13.3 12.1 11.5 89 1.0 NNW 9 13 5 7 1022.5 1022.4 0.0
28/02:57pm 13.1 11.7 10.8 86 1.3 N 9 13 5 7 1022.5 1022.4 0.0
28/02:45pm 13.4 12.0 10.8 84 1.4 NNW 9 13 5 7 1022.6 1022.5 0.0
28/02:30pm 13.2 12.2 10.9 86 1.3 NNW 7 13 4 7 1022.8 1022.7 0.0
28/02:00pm 12.7 12.6 10.8 88 1.0 NW 2 7 1 4 1022.9 1022.8 0.0
28/01:30pm 11.4 10.3 9.8 90 0.8 W 6 7 3 4 1023.0 1022.9 0.0
28/01:00pm 11.0 10.1 9.1 88 1.0 WSW 4 7 2 4 1023.4 1023.3 0.0
28/12:30pm 11.3 10.1 9.4 88 1.0 NW 6 9 3 5 1023.8 1023.7 0.0
28/12:00pm 10.6 10.0 8.9 89 0.9 WSW 2 7 1 4 1024.2 1024.1 0.0
28/11:30am 10.1 8.7 9.0 93 0.6 W 6 9 3 5 1024.5 1024.5 0.0
28/11:23am 10.1 9.4 8.7 91 0.7 W 2 7 1 4 1024.7 1024.6 0.0
28/11:22am 10.1 9.4 8.7 91 0.7 WNW 2 7 1 4 1024.7 1024.6 0.0
28/11:12am 9.9 9.8 9.4 97 0.3 CALM 0 0 0 0 1024.8 1024.7 0.0
28/11:11am 9.9 9.8 9.4 97 0.3 CALM 0 0 0 0 1024.8 1024.7 0.0
28/11:00am 8.9 7.8 8.6 98 0.2 SW 4 9 2 5 1024.9 1024.8 0.0
28/10:30am 8.8 7.1 8.2 96 0.3 W 7 9 4 5 1025.3 1025.2 0.0
28/10:00am 8.6 8.3 8.5 99 0.1 CALM 0 0 0 0 1025.4 1025.3 0.0
28/09:30am 7.8 7.3 7.7 99 0.0 CALM 0 0 0 0 1025.3 1025.2 0.0
28/09:00am 7.0 5.9 7.0 100 0.0 SSE 2 6 1 3 1025.2 1025.1 0.0
28/08:50am 6.6 5.4 6.6 100 0.0 SSE 2 6 1 3 1025.2 1025.1 0.0
28/08:48am 6.6 5.4 6.6 100 0.0 S 2 6 1 3 1025.2 1025.1 0.0
28/08:30am 6.2 5.3 6.2 100 0.0 CALM 0 0 0 0 1025.2 1025.1 0.0
28/08:00am 5.8 4.8 5.8 100 0.0 CALM 0 0 0 0 1025.1 1025.0 0.0
28/07:59am 5.8 4.8 5.8 100 0.0 CALM 0 0 0 0 1025.2 1025.1 0.0
28/07:30am 5.4 3.2 5.4 100 0.0 SSW 6 7 3 4 1024.9 1024.8 0.0
28/07:00am 5.0 3.9 5.0 100 0.0 CALM 0 6 0 3 1024.3 1024.3 0.0
28/06:30am 4.8 2.9 4.8 100 0.0 ESE 4 6 2 3 1024.1 1024.0 0.0
28/06:00am 4.8 1.9 4.8 100 0.0 S 9 9 5 5 1024.2 1024.1 0.0
28/05:30am 4.7 3.1 4.7 100 0.0 SW 2 7 1 4 1023.8 1023.7 0.0
28/05:00am 4.7 2.4 4.7 100 0.0 SE 6 7 3 4 1023.6 1023.5 0.0
28/04:30am 4.8 2.5 4.8 100 0.0 S 6 11 3 6 1023.7 1023.6 0.0
28/04:07am 4.7 2.8 4.7 100 0.0 SE 4 9 2 5 1023.8 1023.7 0.0
28/04:00am 4.2 2.9 4.2 100 0.0 CALM 0 0 0 0 1023.8 1023.7 0.0
28/03:34am 3.8 2.4 3.8 100 0.0 CALM 0 0 0 0 1024.0 1023.9 0.0
28/03:30am 4.1 2.8 4.1 100 0.0 CALM 0 0 0 0 1024.0 1023.9 0.0
28/03:00am 3.7 2.3 3.6 99 0.0 CALM 0 0 0 0 1023.9 1023.8 0.0
28/02:37am 3.6 2.2 3.5 99 0.0 CALM 0 0 0 0 1023.9 1023.8 0.0
28/02:30am 3.7 2.3 3.6 99 0.0 CALM 0 0 0 0 1023.9 1023.8 0.0
28/02:12am 3.9 2.2 3.8 99 0.0 SE 2 7 1 4 1024.0 1023.9 0.0
28/02:00am 5.1 2.9 5.1 100 0.0 SE 6 7 3 4 1024.1 1024.0 0.0
28/01:30am 5.3 2.5 5.3 100 0.0 SE 9 11 5 6 1024.3 1024.3 0.0
28/01:00am 5.4 3.0 5.4 100 0.0 SE 7 7 4 4 1024.5 1024.5 0.0
28/12:30am 5.4 3.6 5.3 99 0.0 E 4 6 2 3 1024.7 1024.6 0.0
28/12:00am 6.1 5.2 6.0 99 0.0 CALM 0 0 0 0 1024.7 1024.6 0.0
 
Date/Time
EST
Temp
°C
App
Temp
°C
Dew
Point
Rel
Hum
%
Delta-T
°C
Wind Press
QNH
hPa
Press
MSL
hPa
Rain
since 9 am
mm
Dir
 
Spd
km/h
Gust
km/h
Spd
kts
Gust
kts
27/11:30pm 6.3 5.4 6.2 99 0.0 CALM 0 0 0 0 1024.8 1024.7 0.0
27/11:00pm 6.4 5.6 6.3 99 0.0 CALM 0 0 0 0 1024.7 1024.6 0.0
27/10:30pm 6.4 5.6 6.3 99 0.0 CALM 0 0 0 0 1024.7 1024.6 0.0
27/10:00pm 7.3 6.4 5.9 91 0.7 CALM 0 0 0 0 1024.7 1024.6 0.0
27/09:30pm 8.2 6.2 7.0 92 0.6 E 7 9 4 5 1024.7 1024.6 0.0
27/09:00pm 8.6 6.5 6.7 88 0.9 NE 7 7 4 4 1024.8 1024.7 0.0
27/08:30pm 9.1 7.4 7.4 89 0.8 NE 6 7 3 4 1024.9 1024.8 0.0
27/08:00pm 9.3 7.4 7.4 88 0.9 NE 7 7 4 4 1024.8 1024.7 0.0
27/07:30pm 9.2 7.3 7.5 89 0.8 NE 7 9 4 5 1024.4 1024.4 0.0
27/07:00pm 9.4 7.5 7.7 89 0.8 NNE 7 7 4 4 1024.4 1024.4 0.0
27/06:30pm 9.4 7.3 8.2 92 0.6 N 9 11 5 6 1024.1 1024.0 0.0
27/06:00pm 9.9 7.7 7.7 86 1.1 N 9 11 5 6 1023.9 1023.8 0.0
27/05:30pm 10.9 9.1 7.8 81 1.6 N 7 9 4 5 1023.7 1023.6 0.0
27/05:00pm 11.6 9.9 8.3 80 1.7 N 7 7 4 4 1023.6 1023.5 0.0
27/04:30pm 12.1 10.5 7.8 75 2.2 N 6 9 3 5 1023.3 1023.2 0.0
27/04:00pm 12.4 10.2 7.9 74 2.3 N 9 13 5 7 1023.5 1023.4 0.0
27/03:30pm 12.7 9.6 7.4 70 2.7 N 13 17 7 9 1023.6 1023.5 0.0
27/03:00pm 13.2 10.2 7.6 69 2.8 N 13 15 7 8 1023.9 1023.8 0.0
27/02:30pm 12.8 10.5 7.5 70 2.7 N 9 13 5 7 1023.9 1023.8 0.0

Other Formats:

Comma delimited format used in spreadsheet applications
http://www.bom.gov.au/fwo/IDN60801/IDN60801.94729.axf

JavaScript Object Notation format (JSON) in row-major order
http://www.bom.gov.au/fwo/IDN60801/IDN60801.94729.json